Weather History for Chillicothe, MO

Change the Weather History Date:

Thursday, February 21, 2013

  Actual Average (KIRK) Record (KIRK)
Temperature  
Mean Temperature 22 °F 31 °F  
Max Temperature 25 °F 41 °F 69 °F (1922)
Min Temperature 19 °F 22 °F -4 °F (1918)
Degree Days  
Heating Degree Days 43 34  
Month to date heating degree days 761  
Since 1 July heating degree days 4308  
Cooling Degree Days 0 0  
Month to date cooling degree days 0  
Year to date cooling degree days 0  
Moisture  
Dew Point 17 °F    
Average Humidity 80    
Maximum Humidity 91    
Minimum Humidity 68    
Precipitation  
Precipitation 0.91 in 0.05 in 0.80 in (1937)
Month to date precipitation 1.13  
Year to date precipitation 2.40  
Sea Level Pressure  
Sea Level Pressure 30.07 in    
Wind  
Wind Speed 9 mph (East)    
Max Wind Speed 17 mph    
Max Gust Speed 31 mph    
T = Trace of Precipitation, MM = Missing Value Source: NWS Daily Summary

Daily Weather History Graph

Daily Weather History Graph

Search for Another Location

Airport:

Trip Planner

Search our weather history database for the weather conditions in past years. The results will help you decide how hot, cold, wet, or windy it might be!

Date:

Astronomy

Feb. 21, 2013 Rise Set
Actual Time 6:58 AM CST 5:57 PM CST
Civil Twilight 6:31 AM CST 6:25 PM CST
Nautical Twilight 5:59 AM CST 6:56 PM CST
Astronomical Twilight 5:28 AM CST 7:27 PM CST
Moon 2:13 PM CST (2/21) 4:03 AM CST (2/21)
Length of Visible Light 11h 53m
Length of Day
10h 59m
Waxing Gibbous, 84% of the Moon is Illuminated
Feb 21
Waxing Gibbous
Feb 25
Full
Mar 4
Last Quarter
Mar 11
New
Mar 19
First Quarter

Hourly Weather History & Observations

Time (CST) Temp. Windchill Dew Point Humidity Pressure Visibility Wind Dir Wind Speed Gust Speed Precip Events Conditions
12:52 AM 19.9 °F 13.4 °F 10.9 °F 68% 30.35 in - East 4.6 mph - N/A   Unknown
1:52 AM 19.0 °F 7.5 °F 10.9 °F 71% 30.32 in - ENE 10.4 mph - N/A   Unknown
2:52 AM 19.0 °F 9.0 °F 10.9 °F 71% 30.29 in - East 8.1 mph - N/A   Unknown
3:52 AM 19.9 °F 9.3 °F 12.0 °F 71% 30.27 in - East 9.2 mph - N/A   Unknown
4:52 AM 19.9 °F 9.3 °F 12.0 °F 71% 30.23 in - East 9.2 mph 17.3 mph N/A   Unknown
5:52 AM 21.0 °F 10.6 °F 12.0 °F 68% 30.20 in - East 9.2 mph 19.6 mph N/A   Unknown
6:52 AM 21.0 °F 8.6 °F 12.9 °F 71% 30.21 in - East 12.7 mph 18.4 mph N/A   Unknown
7:52 AM 21.9 °F 9.8 °F 14.0 °F 72% 30.19 in - East 12.7 mph 19.6 mph N/A   Unknown
8:52 AM 23.0 °F 11.7 °F 14.0 °F 68% 30.19 in - ENE 11.5 mph 18.4 mph N/A   Unknown
9:52 AM 21.0 °F 10.6 °F 18.0 °F 88% 30.20 in - East 9.2 mph 19.6 mph 0.03 in   Unknown
10:52 AM 21.0 °F 9.3 °F 18.0 °F 88% 30.14 in - East 11.5 mph 19.6 mph 0.16 in   Unknown
11:52 AM 21.9 °F 8.2 °F 18.0 °F 85% 30.09 in - East 16.1 mph 25.3 mph 0.18 in   Unknown
12:52 PM 21.9 °F 9.8 °F 18.0 °F 85% 30.03 in - East 12.7 mph 25.3 mph 0.19 in   Unknown
1:52 PM 24.1 °F 12.0 °F 19.0 °F 81% 29.97 in - East 13.8 mph 27.6 mph 0.08 in   Unknown
2:52 PM 24.1 °F 10.6 °F 18.0 °F 77% 29.95 in - East 17.3 mph 31.1 mph 0.02 in   Unknown
3:52 PM 24.1 °F 13.1 °F 19.0 °F 81% 29.94 in - East 11.5 mph 21.9 mph N/A   Unknown
4:52 PM 24.1 °F 15.2 °F 19.9 °F 84% 29.92 in - East 8.1 mph 18.4 mph 0.04 in   Unknown
5:52 PM 24.1 °F 17.0 °F 19.9 °F 84% 29.90 in - Variable 5.8 mph - 0.03 in   Unknown
6:52 PM 24.1 °F 16.0 °F 21.0 °F 88% 29.90 in - East 6.9 mph - 0.03 in   Unknown
7:52 PM 24.1 °F 18.2 °F 21.9 °F 91% 29.89 in - ENE 4.6 mph - 0.04 in   Unknown
8:52 PM 25.0 °F 19.3 °F 21.9 °F 88% 29.88 in - NE 4.6 mph - 0.05 in   Unknown
9:52 PM 25.0 °F 19.3 °F 21.9 °F 88% 29.87 in - NE 4.6 mph - 0.05 in   Unknown
10:52 PM 25.0 °F - 21.9 °F 88% 29.86 in - Calm Calm - 0.01 in   Unknown
11:52 PM 25.0 °F - 21.9 °F 88% 29.84 in - Calm Calm - N/A   Unknown